Location: Coed Ely
(51.5661°N, 3.4150°W)
Time: 23:14:44
(UTC+00:00)

Cosmos 2315 Rocket - Pass Details

Date: 28 January 2021
Orbit: 965 x 1003 km, 82.9° (Epoch: 01 March)

Event Time Altitude Azimuth Distance (km) Brightness Sun altitude
Rises 19:36:03 0° 350° (N) 3,689 7.2 -24.7°
Reaches altitude 10° 19:38:36 10° 352° (N) 2,733 6.4 -25.1°
Maximum altitude 19:44:52 75° 78° (ENE) 1,006 3.8 -26.1°
Enters shadow 19:46:36 49° 150° (SSE) 1,228 4.2 -26.3°
